Flag for Norway Weather past 2 weeks in Ålesund, Norway

Now
39 °F

Passing clouds.


Feels Like: 30 °F
Forecast: 38 / 42 °F
Wind: 16 mph from Southwest

Location: Alesund / Vigra

Current Time: Dec 22, 2014 at 5:25:48 AM

Latest Report: Dec 22, 2014 at 4:20 AM


Visibility: N/A

Pressure: 29.09 "Hg

Humidity: 87%

Dew point: 36 °F

Location of ÅlesundLocation

Historic Weather in Ålesund — Graph

°F

Ålesund temperature yesterday

Maximum temperature yesterday: 46 °F (at 11:20 PM)
Minimum temperature yesterday: 34 °F (at 12:20 AM)
Average temperature yesterday: 38 °F

Past Weeks' High & Low Weather Summary

 TemperatureHumidityPressure
High46 °F (Dec 14, 2:50 PM)100% (Dec 15, 1:20 PM)29.89 "Hg (Dec 15, 1:20 PM)
Low32 °F (Dec 13, 5:20 PM)53% (Dec 12, 9:20 PM)28.65 "Hg (Dec 11, 6:50 AM)
Average39 °F77%29.14 "Hg
* Reported Dec 7 3:20 AM — Dec 22 3:50 AM, Ålesund, Weather by CustomWeather, © 2014

Note: Actual official high and low records may vary slightly from our data, if they occured in-between our weather recording intervals... More about our weather records

Advertising

Ålesund weather history for previous 24 hours

 ConditionsComfort  
Time TempWeatherWind HumidityBarometerVisibility
3:50 AM
Dec 22
39 °FPassing clouds.14 mph87%29.09 "HgN/A
3:20 AM37 °FLight rain. Partly cloudy.20 mph93%29.09 "Hg4 mi
2:50 AM43 °FPartly cloudy.14 mph81%29.06 "HgN/A
2:20 AM41 °FPassing clouds.12 mph81%29.09 "HgN/A
1:50 AM41 °FPartly cloudy.15 mph87%29.09 "HgN/A
1:20 AM39 °FLight rain. Partly cloudy.14 mph93%29.09 "Hg3 mi
12:50 AM41 °FLight rain. Passing clouds.15 mph87%29.09 "HgN/A
12:20 AM41 °FPartly cloudy.22 mph87%29.09 "HgN/A
11:50 PM
Dec 21
45 °FLow clouds.21 mph81%29.09 "HgN/A
11:20 PM46 °FLight rain. Passing clouds.18 mph82%29.09 "Hg4 mi
9:50 PM43 °FRain. Partly cloudy.15 mph87%29.12 "HgN/A
9:20 PM41 °FPartly cloudy.15 mph93%29.12 "HgN/A
8:50 PM41 °FLight rain. Partly cloudy.18 mph87%29.15 "Hg3 mi
8:20 PM41 °FPartly cloudy.18 mph87%29.15 "HgN/A
7:50 PM39 °FPassing clouds.18 mph87%29.18 "HgN/A
7:20 PM39 °FPassing clouds.22 mph87%29.18 "HgN/A
6:50 PM39 °FPartly cloudy.18 mph81%29.18 "HgN/A
6:20 PM39 °FPassing clouds.21 mph81%29.21 "HgN/A
5:50 PM37 °FPassing clouds.20 mph87%29.21 "HgN/A
5:20 PM37 °FPassing clouds.20 mph87%29.24 "HgN/A
4:50 PM37 °FPassing clouds.21 mph87%29.27 "HgN/A
4:20 PM37 °FPassing clouds.18 mph81%29.30 "HgN/A
3:50 PM37 °FPassing clouds.18 mph81%29.30 "HgN/A
3:20 PM37 °FScattered showers. Partly cloudy.18 mph75%29.33 "HgN/A
2:50 PM37 °FScattered showers. Broken clouds.20 mph81%29.36 "HgN/A
2:20 PM36 °FScattered showers. Broken clouds.17 mph87%29.39 "HgN/A
1:50 PM36 °FSprinkles. Broken clouds.20 mph87%29.42 "HgN/A
1:20 PM37 °FSprinkles. Broken clouds.20 mph81%29.47 "HgN/A
12:50 PM39 °FSprinkles. Broken clouds.17 mph70%29.50 "HgN/A
12:20 PM37 °FScattered showers. Broken clouds.15 mph75%29.50 "HgN/A
11:50 AM39 °FPartly sunny.15 mph70%29.53 "HgN/A
11:20 AM39 °FPartly sunny.16 mph65%29.56 "HgN/A
10:50 AM39 °FScattered clouds.14 mph65%29.59 "HgN/A
10:20 AM39 °FBroken clouds.10 mph65%29.59 "HgN/A
9:50 AM39 °FPassing clouds.9 mph70%29.62 "HgN/A
9:20 AM39 °FPassing clouds.10 mph70%29.65 "HgN/A
8:50 AM37 °FScattered showers. Passing clouds.9 mph75%29.68 "HgN/A
8:20 AM37 °FScattered showers. Passing clouds.9 mph81%29.68 "HgN/A
7:50 AM37 °FScattered showers. Passing clouds.6 mph75%29.68 "HgN/A
7:20 AM36 °FSprinkles. Partly cloudy.10 mph87%29.71 "HgN/A
6:50 AM37 °FPartly cloudy.7 mph75%29.71 "HgN/A
6:20 AM37 °FSprinkles. Partly cloudy.10 mph81%29.71 "HgN/A
5:50 AM36 °FPartly cloudy.16 mph81%29.74 "HgN/A
5:20 AM37 °FMostly cloudy.15 mph75%29.74 "HgN/A
Weather by CustomWeather, © 2014

See weather overviewHow to use our weather pages